Showing default

ARCSAT-1, 52161

Orbit data source: Space-Track

ARCSAT-1, 52161 is a payload satellite owned by NDRE (NO) in SSO that was launched on Fri, 01 Apr 2022 UTC via an FALCON 9 launch vehicle from the Air Force Eastern Test Range (AFETR). Payload-class satellites include a variety of spacecraft equipped with specific instruments for various scientific and technological missions. These include communications satellites like Starlink; space stations such as the ISS; scientific satellites like the Hubble; Earth observation satellites from companies like Planet Labs, Umbra, and HawkEye 360; GPS; miniature CubeSats for education and research; and military/defense satellites.

Loading next visibility...
Identifier
52161, 2022-033E
Orbit
SSO
Country
Flag of NONO / NOR
Related business
Manufacturer
GOMSpace
Mission
Operational Defense Communications
Bus & Motor
CUBESAT 6U, Unknown motor
Mass
~10 kg wet, ~10 kg dry
Launch date (UTC)
2022-04-01 (4 years ago)
Launch vehicle
FALCON 9
Launch site
Air Force Eastern Test Range (AFETR)
Object type
Payload
Rocket body
Debris
Shape & HBR
Box, 0.2 m
Radar Cross Section
0.080 m², Medium (>0.1 m² and < 1m²)

Expand to show TLE details & history
Last TLE update: 10 hours ago

TLE from 10 hours ago
0 ARCSAT-1
1 52161U 22033E   26264.79847065  .00009948  00000-0  14544-3 0  9992
2 52161  97.2734 358.6489 0004552 182.2262 177.8974 15.55815565250715
Epoch: 2026-09-21T19:09Z
TLE epoch observation values (Epoch: 2026-09-21T19:09:47.864Z)
Latitude
0.00006°
Longitude
70.52633°
Altitude
406.009 km
Speed
7.665 km/s
True Right ascension
23h 54m 35s
True Declination
0° 00' 00"
Sunlit
Object was in full shadow at epoch
Visualization orbit readout
Latitude
Unknown
Longitude
Unknown
Altitude
Unknown
Speed
Unknown
Apparent Right ascension
Unknown
Apparent Declination
Unknown
Sunlit
N/A
Visualization observer readout
Local Sidereal Time
21:56:14
Azimuth
Unknown
Elevation
Unknown
Doppler factor
Unknown
Orbital elements
Apogee altitude
399.779 km
Perigee altitude
393.612 km
Semi-major axis
6,774.832 km
Eccentricity
0.00046
Inclination
97.2734°
RAAN
358.6489°
Arg. of periapsis
182.2262°
True anomaly
177.89931°
Mean anomaly
177.8974°
Eccentric anomaly
177.89836°
Mean motion
3.8922 °/min
Orbital period
92.49 mins
BSTAR
0.00014544
Loading maneuver chart data...
Computing Atmospheric mass density...

Documentation

Showing up to 5 results
|